�N����,����,�~����,�C��,���x,�C��,����,���ϕ���,�ő�u�ԕ���,�ő厞����,���˗�,�I�_���x,�n�����x,�ő啗���N��,DTYPE
"23/12/23","00:10",0.0,-0.9,70.2,1021.3,6.3,0.6,1.4,350.9,0.00,-5.6,5.9,"00:09:44",1
"23/12/23","00:20",0.0,-1.3,71.7,1021.3,323.6,1.5,2.7,342.6,0.00,-5.7,5.8,"00:10:56",1
"23/12/23","00:30",0.0,-1.7,73.1,1021.3,281.5,0.7,1.3,310.4,0.00,-5.8,6.0,"00:21:36",1
"23/12/23","00:40",0.0,-1.6,74.4,1021.5,242.7,0.8,2.1,262.8,0.00,-5.5,5.9,"00:31:44",1
"23/12/23","00:50",0.0,-1.3,75.0,1021.5,310.5,0.6,1.8,339.6,0.00,-5.1,5.8,"00:49:44",1
"23/12/23","01:00",0.0,-0.8,75.1,1021.5,301.7,1.2,2.7,340.1,0.00,-4.6,5.7,"00:59:52",1
"23/12/23","01:10",0.0,-0.3,74.4,1021.5,289.0,1.1,2.5,331.0,0.00,-4.3,5.8,"01:00:16",1
"23/12/23","01:20",0.0,-0.3,73.5,1021.5,294.1,1.5,1.9,309.3,0.00,-4.4,5.8,"01:18:24",1
"23/12/23","01:30",0.0,-0.3,72.6,1021.5,319.8,2.0,2.9,315.2,0.00,-4.6,5.8,"01:26:56",1
"23/12/23","01:40",0.0,-0.4,72.3,1021.8,275.3,1.3,2.4,270.4,0.00,-4.7,5.8,"01:36:48",1
"23/12/23","01:50",0.0,-0.1,71.9,1022.0,283.6,2.3,3.4,253.4,0.00,-4.5,5.9,"01:46:56",1
"23/12/23","02:00",0.0,0.1,71.5,1021.8,258.4,2.7,4.8,235.0,0.00,-4.4,5.6,"01:56:24",1
"23/12/23","02:10",0.0,0.1,71.0,1022.0,251.4,3.4,6.0,241.4,0.00,-4.5,5.4,"02:00:24",1
"23/12/23","02:20",0.0,0.1,70.8,1022.3,259.6,3.0,4.9,245.5,0.00,-4.5,5.7,"02:11:14",1
"23/12/23","02:30",0.0,0.0,71.1,1022.3,257.1,2.6,4.4,240.8,0.00,-4.6,5.4,"02:28:16",1
"23/12/23","02:40",0.0,0.2,70.7,1022.3,254.0,3.0,4.5,244.8,0.00,-4.4,5.7,"02:34:32",1
"23/12/23","02:50",0.0,0.1,70.9,1022.5,257.6,3.1,5.5,238.1,0.00,-4.5,5.4,"02:46:34",1
"23/12/23","03:00",0.0,0.1,71.0,1022.7,257.5,2.8,4.4,258.4,0.00,-4.5,5.5,"02:58:08",1
"23/12/23","03:10",0.0,0.0,71.0,1022.7,254.2,2.5,3.2,254.2,0.00,-4.6,5.6,"03:00:24",1
"23/12/23","03:20",0.0,-0.2,71.3,1022.5,281.6,1.8,2.8,289.4,0.00,-4.7,5.5,"03:13:28",1
"23/12/23","03:30",0.0,-0.4,71.9,1022.3,303.6,1.2,2.4,325.2,0.00,-4.8,5.4,"03:20:40",1
"23/12/23","03:40",0.0,-0.8,72.7,1022.3,350.3,0.6,1.4,341.4,0.00,-5.0,5.6,"03:30:40",1
"23/12/23","03:50",0.0,-1.0,74.1,1022.3,348.0,0.2,1.2,270.5,0.00,-5.0,5.4,"03:49:52",1
"23/12/23","04:00",0.0,-1.2,75.3,1022.3,271.7,1.0,1.6,256.5,0.00,-5.0,5.6,"03:50:56",1
"23/12/23","04:10",0.0,-0.9,76.1,1022.0,303.9,1.7,3.3,308.8,0.00,-4.5,5.4,"04:09:20",1
"23/12/23","04:20",0.0,-0.6,75.8,1022.5,291.7,1.2,1.8,271.6,0.00,-4.3,5.2,"04:14:24",1
"23/12/23","04:30",0.0,-1.1,76.3,1021.8,310.7,1.5,2.2,306.2,0.00,-4.7,5.2,"04:29:20",1
"23/12/23","04:40",0.0,-1.0,76.7,1021.8,288.2,1.6,2.5,327.1,0.00,-4.5,5.3,"04:31:36",1
"23/12/23","04:50",0.0,-1.2,77.0,1021.5,214.9,0.5,1.2,301.8,0.00,-4.7,5.5,"04:49:28",1
"23/12/23","05:00",0.0,-1.6,77.5,1021.8,295.5,1.0,2.1,324.1,0.00,-5.0,5.6,"04:59:52",1
"23/12/23","05:10",0.0,-1.5,78.1,1021.8,276.4,1.1,1.9,262.1,0.00,-4.8,5.2,"05:04:40",1
"23/12/23","05:20",0.0,-1.3,78.6,1021.8,319.8,2.1,4.1,333.3,0.00,-4.5,5.5,"05:18:32",1
"23/12/23","05:30",0.0,-1.1,78.8,1021.5,326.8,2.2,3.3,346.7,0.00,-4.3,5.4,"05:20:32",1
"23/12/23","05:40",0.0,-1.2,79.0,1022.3,289.5,1.3,2.5,327.9,0.00,-4.3,5.3,"05:35:44",1
"23/12/23","05:50",0.0,-1.3,79.4,1022.3,297.7,1.7,2.7,336.0,0.00,-4.4,5.3,"05:47:52",1
"23/12/23","06:00",0.0,-1.4,79.6,1022.7,315.2,1.6,2.4,333.9,0.00,-4.4,5.3,"05:54:32",1
"23/12/23","06:10",0.0,-1.8,79.9,1022.7,296.7,1.3,2.0,315.9,0.00,-4.8,5.3,"06:04:40",1
"23/12/23","06:20",0.0,-2.1,80.4,1022.5,293.8,1.1,2.4,264.8,0.00,-5.0,5.2,"06:19:52",1
"23/12/23","06:30",0.0,-1.7,80.9,1022.5,280.5,2.0,2.9,320.3,0.00,-4.5,5.2,"06:29:12",1
"23/12/23","06:40",0.0,-1.8,81.2,1022.5,309.8,2.1,2.7,315.3,0.00,-4.6,5.3,"06:39:04",1
"23/12/23","06:50",0.0,-1.9,81.6,1022.3,289.9,1.8,2.6,316.6,0.00,-4.6,5.1,"06:48:40",1
"23/12/23","07:00",0.0,-2.2,82.0,1022.0,323.6,1.8,2.6,323.3,0.00,-4.8,4.8,"06:55:04",1
"23/12/23","07:10",0.0,-2.4,82.6,1022.5,316.5,1.8,2.4,312.2,0.00,-4.9,5.1,"07:01:36",1
"23/12/23","07:20",0.0,-2.6,83.0,1022.5,294.7,1.2,2.5,314.6,0.00,-5.0,5.0,"07:17:52",1
"23/12/23","07:30",0.0,-2.8,83.6,1022.7,320.1,2.1,2.7,318.0,0.00,-5.1,4.9,"07:21:36",1
"23/12/23","07:40",0.0,-2.8,84.1,1022.7,283.4,0.8,1.1,286.7,0.00,-5.1,5.1,"07:30:56",1
"23/12/23","07:50",0.0,-2.1,84.7,1022.3,300.6,0.7,1.6,305.5,0.01,-4.3,5.0,"07:49:44",1
"23/12/23","08:00",0.0,-1.5,85.3,1022.7,305.9,1.8,2.9,318.7,0.03,-3.6,4.8,"07:54:56",1
"23/12/23","08:10",0.0,-0.9,85.8,1023.2,288.3,1.6,2.1,308.0,0.06,-2.9,4.8,"08:09:44",1
"23/12/23","08:20",0.0,-0.3,85.7,1023.9,310.8,2.2,2.9,322.2,0.09,-2.4,4.8,"08:18:58",1
"23/12/23","08:30",0.0,0.2,84.9,1024.4,326.9,2.3,3.1,332.3,0.11,-2.0,4.7,"08:21:28",1
"23/12/23","08:40",0.0,0.9,83.3,1024.6,317.6,2.1,4.5,325.6,0.14,-1.6,5.0,"08:39:20",1
"23/12/23","08:50",0.0,1.5,81.0,1025.1,297.8,1.8,3.3,319.6,0.17,-1.4,4.8,"08:43:04",1
"23/12/23","09:00",0.0,1.8,78.2,1026.0,67.6,0.7,1.9,326.7,0.19,-1.5,5.0,"08:59:12",1
"23/12/23","09:10",0.0,2.5,75.3,1025.8,331.4,1.1,2.9,338.6,0.22,-1.4,5.0,"09:01:36",1
"23/12/23","09:20",0.0,2.9,73.2,1026.7,299.9,1.3,3.2,324.6,0.25,-1.4,4.9,"09:16:16",1
"23/12/23","09:30",0.0,3.3,71.7,1026.7,304.4,1.5,3.4,325.5,0.27,-1.3,5.0,"09:20:32",1
"23/12/23","09:40",0.0,3.7,70.2,1026.5,266.9,1.2,2.2,250.8,0.29,-1.2,5.1,"09:36:16",1
"23/12/23","09:50",0.0,4.2,68.6,1026.7,298.3,1.1,2.6,340.0,0.31,-1.0,5.0,"09:43:44",1
"23/12/23","10:00",0.0,4.4,66.6,1026.7,241.1,1.3,2.9,244.5,0.34,-1.2,5.0,"09:59:26",1
"23/12/23","10:10",0.0,4.4,65.4,1027.0,210.7,1.5,2.8,242.4,0.35,-1.5,5.1,"10:02:24",1
"23/12/23","10:20",0.0,4.9,63.7,1026.7,210.1,1.2,2.6,170.1,0.37,-1.4,5.2,"10:18:06",1
"23/12/23","10:30",0.0,5.3,62.0,1026.5,244.0,1.5,3.5,256.1,0.39,-1.3,5.3,"10:29:30",1
"23/12/23","10:40",0.0,5.7,59.7,1026.5,229.4,1.2,2.5,299.5,0.40,-1.5,5.4,"10:30:32",1
"23/12/23","10:50",0.0,5.9,59.9,1026.3,231.9,2.2,5.7,246.0,0.42,-1.2,5.4,"10:46:00",1
"23/12/23","11:00",0.0,6.0,58.9,1026.3,179.7,1.3,3.3,207.9,0.43,-1.4,5.2,"10:57:28",1
"23/12/23","11:10",0.0,6.6,57.6,1026.0,127.4,1.2,2.7,134.5,0.44,-1.1,5.5,"11:05:16",1
"23/12/23","11:20",0.0,6.8,55.9,1026.0,24.3,1.6,4.0,359.2,0.44,-1.3,5.7,"11:18:24",1
"23/12/23","11:30",0.0,6.7,55.1,1025.6,331.0,2.1,4.5,339.0,0.45,-1.6,5.5,"11:27:32",1
"23/12/23","11:40",0.0,7.2,55.4,1025.3,291.4,2.2,3.9,261.3,0.46,-1.1,5.8,"11:35:46",1
"23/12/23","11:50",0.0,7.5,54.4,1025.1,268.2,2.8,5.4,235.1,0.47,-1.1,5.7,"11:48:50",1
"23/12/23","12:00",0.0,7.4,53.9,1024.9,276.9,3.4,5.5,252.1,0.47,-1.3,6.0,"11:55:30",1
"23/12/23","12:10",0.0,7.4,53.7,1024.6,284.6,3.5,5.5,288.2,0.46,-1.3,6.0,"12:05:08",1
"23/12/23","12:20",0.0,7.9,53.2,1024.9,287.0,3.4,6.2,322.4,0.46,-1.0,6.2,"12:11:44",1
"23/12/23","12:30",0.0,8.2,53.0,1024.9,275.3,3.0,4.5,252.0,0.46,-0.8,6.3,"12:28:26",1
"23/12/23","12:40",0.0,7.9,51.8,1024.4,281.2,3.6,7.0,247.2,0.45,-1.4,6.6,"12:39:18",1
"23/12/23","12:50",0.0,8.3,50.8,1024.4,267.3,3.0,5.7,242.1,0.45,-1.2,6.4,"12:46:30",1
"23/12/23","13:00",0.0,8.4,49.9,1024.4,281.2,2.8,6.3,255.0,0.43,-1.4,6.4,"12:58:32",1
"23/12/23","13:10",0.0,8.7,49.3,1024.6,288.5,3.0,5.9,346.5,0.44,-1.3,6.6,"13:03:14",1
"23/12/23","13:20",0.0,8.3,48.5,1024.6,321.8,3.9,5.7,295.2,0.37,-1.9,6.8,"13:12:36",1
"23/12/23","13:30",0.0,8.9,48.9,1024.4,290.3,2.7,5.2,296.0,0.38,-1.2,6.8,"13:23:12",1
"23/12/23","13:40",0.0,9.0,47.3,1024.4,285.8,2.8,6.8,348.7,0.40,-1.6,7.0,"13:31:26",1
"23/12/23","13:50",0.0,9.0,47.2,1024.4,273.9,3.1,5.1,244.0,0.37,-1.6,7.0,"13:41:50",1
"23/12/23","14:00",0.0,8.8,47.6,1024.1,271.3,2.8,5.2,317.2,0.34,-1.7,7.1,"13:55:26",1
"23/12/23","14:10",0.0,8.5,49.1,1024.4,254.0,3.1,6.4,242.1,0.23,-1.5,7.3,"14:05:12",1
"23/12/23","14:20",0.0,8.6,48.8,1024.4,285.3,2.7,4.8,313.9,0.18,-1.5,7.1,"14:10:36",1
"23/12/23","14:30",0.0,8.0,48.5,1024.6,304.2,3.5,8.3,316.3,0.09,-2.2,7.2,"14:27:22",1
"23/12/23","14:40",0.0,7.9,49.2,1024.6,317.8,3.9,8.7,343.0,0.11,-2.1,7.5,"14:31:54",1
"23/12/23","14:50",0.0,8.2,49.2,1024.1,292.8,3.2,5.5,310.5,0.14,-1.8,7.3,"14:46:12",1
"23/12/23","15:00",0.0,8.4,49.3,1024.1,292.2,3.1,5.6,341.5,0.15,-1.6,7.4,"14:52:38",1
"23/12/23","15:10",0.0,8.3,49.2,1024.1,298.6,4.0,7.2,296.3,0.17,-1.7,7.4,"15:05:38",1
"23/12/23","15:20",0.0,8.2,49.4,1024.4,306.2,3.1,6.0,320.8,0.12,-1.7,7.4,"15:11:22",1
"23/12/23","15:30",0.0,8.4,49.7,1024.4,287.5,2.7,4.8,330.7,0.10,-1.5,7.3,"15:22:34",1
"23/12/23","15:40",0.0,8.2,50.4,1024.6,258.8,2.1,5.2,240.4,0.10,-1.4,7.4,"15:30:08",1
"23/12/23","15:50",0.0,8.0,50.0,1024.6,271.7,2.7,5.8,217.7,0.07,-1.7,7.5,"15:42:56",1
"23/12/23","16:00",0.0,7.9,50.3,1024.6,297.1,3.4,6.5,331.1,0.07,-1.8,7.5,"15:53:04",1
"23/12/23","16:10",0.0,7.7,51.0,1024.6,294.0,3.0,5.0,274.0,0.03,-1.8,7.4,"16:01:54",1
"23/12/23","16:20",0.0,7.3,52.2,1024.6,307.2,2.7,4.2,309.2,0.01,-1.8,7.6,"16:14:56",1
"23/12/23","16:30",0.0,7.1,53.0,1024.6,304.9,3.6,6.6,336.3,0.00,-1.8,7.6,"16:20:56",1
"23/12/23","16:40",0.0,6.9,53.4,1025.1,314.8,3.0,4.5,319.8,0.00,-1.9,7.3,"16:35:36",1
"23/12/23","16:50",0.0,6.6,54.7,1024.9,317.6,3.2,4.8,340.4,0.00,-1.8,7.4,"16:48:08",1
"23/12/23","17:00",0.0,6.3,55.8,1024.9,306.1,2.6,4.2,318.4,0.00,-1.8,7.4,"16:51:28",1
"23/12/23","17:10",0.0,5.9,57.4,1024.9,326.4,2.8,5.0,335.4,0.00,-1.8,7.3,"17:03:28",1
"23/12/23","17:20",0.0,5.6,58.5,1025.1,327.2,3.5,5.5,328.6,0.00,-1.9,7.3,"17:18:56",1
"23/12/23","17:30",0.0,4.9,61.6,1025.3,336.1,2.8,5.0,336.7,0.00,-1.8,7.5,"17:24:06",1
"23/12/23","17:40",0.0,4.7,62.9,1025.1,323.1,3.4,4.0,343.2,0.00,-1.7,7.2,"17:30:16",1
"23/12/23","17:50",0.0,4.4,63.9,1025.1,303.5,2.8,3.2,308.3,0.00,-1.8,7.4,"17:45:42",1
"23/12/23","18:00",0.0,4.1,65.4,1024.9,295.1,2.3,3.2,304.2,0.00,-1.8,7.1,"17:53:06",1
"23/12/23","18:10",0.0,3.6,67.0,1025.1,305.7,1.8,2.4,317.3,0.00,-1.9,7.3,"18:00:20",1
"23/12/23","18:20",0.0,3.3,68.4,1025.3,302.2,1.8,2.6,333.2,0.00,-1.9,7.0,"18:16:54",1
"23/12/23","18:30",0.0,2.8,69.5,1025.1,300.9,1.1,1.8,330.5,0.00,-2.2,7.2,"18:20:28",1
"23/12/23","18:40",0.0,2.5,70.4,1025.1,296.0,1.0,1.2,322.5,0.00,-2.3,7.2,"18:37:34",1
"23/12/23","18:50",0.0,2.3,71.8,1025.3,328.9,1.7,1.8,336.4,0.00,-2.2,7.1,"18:44:04",1
"23/12/23","19:00",0.0,2.3,73.3,1025.3,329.9,1.7,2.4,329.5,0.00,-1.9,7.1,"18:54:08",1
"23/12/23","19:10",0.0,2.2,74.0,1025.3,275.7,1.6,2.0,313.0,0.00,-1.9,7.0,"19:01:22",1
"23/12/23","19:20",0.0,2.3,74.6,1025.3,294.3,2.0,3.1,323.5,0.00,-1.7,7.0,"19:13:56",1
"23/12/23","19:30",0.0,2.2,74.9,1025.1,320.2,1.8,2.7,340.9,0.00,-1.7,6.9,"19:24:34",1
"23/12/23","19:40",0.0,2.0,75.5,1025.1,326.4,1.6,2.1,351.8,0.00,-1.8,7.0,"19:38:04",1
"23/12/23","19:50",0.0,1.9,75.8,1025.1,313.8,1.5,2.8,336.2,0.00,-1.9,6.7,"19:40:46",1
"23/12/23","20:00",0.0,1.9,76.3,1025.3,331.5,1.7,2.2,329.6,0.00,-1.8,6.9,"19:59:14",1
"23/12/23","20:10",0.0,1.9,76.6,1025.3,308.1,2.0,3.1,313.9,0.00,-1.7,6.6,"20:02:00",1
"23/12/23","20:20",0.0,1.9,76.9,1025.3,300.1,1.8,2.1,300.7,0.00,-1.7,6.7,"20:14:52",1
"23/12/23","20:30",0.0,1.9,77.2,1024.6,309.6,2.0,2.4,323.8,0.00,-1.6,6.6,"20:24:16",1
"23/12/23","20:40",0.0,1.7,77.3,1024.9,323.3,1.7,2.5,323.8,0.00,-1.8,6.5,"20:30:14",1
"23/12/23","20:50",0.0,1.0,77.6,1024.9,306.7,1.1,1.9,338.1,0.00,-2.4,6.8,"20:40:16",1
"23/12/23","21:00",0.0,0.9,78.4,1024.6,322.7,1.3,2.6,348.4,0.00,-2.4,6.5,"20:56:32",1
"23/12/23","21:10",0.0,0.9,79.0,1024.9,290.7,1.3,2.4,329.2,0.00,-2.3,6.8,"21:09:04",1
"23/12/23","21:20",0.0,1.2,79.4,1024.6,302.5,2.0,2.9,310.4,0.00,-1.9,6.5,"21:15:12",1
"23/12/23","21:30",0.0,1.3,79.6,1024.9,273.9,1.7,2.1,252.8,0.00,-1.8,6.5,"21:21:36",1
"23/12/23","21:40",0.0,1.2,79.9,1024.9,282.2,1.5,2.2,259.2,0.00,-1.8,6.3,"21:39:36",1
"23/12/23","21:50",0.0,1.5,80.0,1025.1,307.9,2.1,3.5,328.5,0.00,-1.5,6.4,"21:43:56",1
"23/12/23","22:00",0.0,2.0,79.8,1025.1,303.3,2.3,4.0,322.0,0.00,-1.1,6.4,"21:58:16",1
"23/12/23","22:10",0.0,2.0,79.3,1025.6,291.9,1.8,2.6,304.8,0.00,-1.2,6.3,"22:00:10",1
"23/12/23","22:20",0.0,1.7,79.2,1025.3,322.1,2.1,2.9,345.1,0.00,-1.5,6.3,"22:19:48",1
"23/12/23","22:30",0.0,1.3,79.4,1025.3,329.0,1.7,2.7,308.2,0.00,-1.8,6.4,"22:23:52",1
"23/12/23","22:40",0.0,0.9,79.8,1025.3,316.7,1.6,2.2,336.2,0.00,-2.1,6.3,"22:34:40",1
"23/12/23","22:50",0.0,0.8,80.4,1025.3,324.9,0.7,1.8,323.8,0.00,-2.1,6.4,"22:49:44",1
"23/12/23","23:00",0.0,0.6,80.8,1025.1,284.1,1.3,1.7,261.9,0.00,-2.3,6.2,"22:51:12",1
"23/12/23","23:10",0.0,0.2,81.4,1025.1,329.6,1.7,2.4,319.8,0.00,-2.6,6.2,"23:04:48",1
"23/12/23","23:20",0.0,0.0,82.2,1025.3,304.7,1.3,1.8,344.2,0.00,-2.6,6.3,"23:12:56",1
"23/12/23","23:30",0.0,-0.1,83.1,1025.3,322.9,1.7,2.4,341.2,0.00,-2.6,6.1,"23:21:20",1
"23/12/23","23:40",0.0,-0.2,83.9,1025.1,318.6,1.5,1.9,329.2,0.00,-2.5,6.1,"23:31:28",1
"23/12/23","23:50",0.0,-0.1,84.9,1024.4,321.2,1.5,2.4,332.2,0.00,-2.3,6.0,"23:43:04",1
"23/12/23","24:00",0.0,-0.1,85.7,1024.4,287.6,1.1,2.2,341.0,0.00,-2.2,5.9,"23:59:36",1
